Regional Weather Roundup
Issued by NWS Grand Forks, ND

Home | Current Version | Previous Version | Text Only | Print | Product List | Glossary On
Versions: 1 2 3 4 5 6 7 8 9 10 11 12 13 14 15 16 17 18 19 20 21 22 23 24 25 26 27 28 29 30 31 32 33 34 35 36 37 38 39 40 41 42 43 44 45 46 47 48 49 50
000
ASUS43 KFGF 051831
RWRFGF
PRAIRIE TO PINES  WEATHER ROUNDUP
NATIONAL WEATHER SERVICE EASTERN NORTH DAKOTA/GRAND FORKS ND
1200 PM CST THU MAR 05 2015

 **SATELLITE DATA USED TO AUGMENT SKY COVER AT AUTOMATED STATIONS**
 *****  WEATHER ACROSS EASTERN NORTH DAKOTA  *****

CITY           SKY/WX    TMP DP  RH WIND       PRES   REMARKS
GRAND FORKS    SUNNY     14   3  61 S18       30.26F WCI  -3
6HR MIN TEMP: -14; 6HR MAX TEMP:  14;

GRAND FRKS AFB SUNNY     17   1  48 S14       30.23F WCI   3
GRAND FRKS NWS   N/A     16 N/A N/A S29         N/A  WCI  -4
DEVILS LAKE    SUNNY     12   1  62 SW9       30.14F WCI   0
6HR MIN TEMP:  -8; 6HR MAX TEMP:  12;

FARGO          SUNNY     15  -1  49 S17       30.33F WCI  -1
WAHPETON ARPT  CLEAR     10   0  61 S14       30.38F WCI  -5
$$

 ***** WEATHER ACROSS CENTRAL AND WESTERN NORTH DAKOTA  *****

CITY           SKY/WX    TMP DP  RH WIND       PRES   REMARKS
BISMARCK       SUNNY     26   4  38 S14       30.13F WCI  14
6HR MIN TEMP:  -6; 6HR MAX TEMP:  26;

MINOT          SUNNY     17   4  56 S9        30.05F WCI   6
6HR MIN TEMP:  -4; 6HR MAX TEMP:  17;

JAMESTOWN      SUNNY     19   7  59 S16       30.18F WCI   4
6HR MIN TEMP:  -9; 6HR MAX TEMP:  19;

MINOT AFB      SUNNY     19   8  61 SW8       30.05F WCI   9
GARRISON         N/A     17   7  64 S7        30.07F WCI   8
WILLISTON        N/A     26   8  46 W12       30.06S WCI  16
DICKINSON      SUNNY     34   9  35 W14       30.02S WCI  25
6HR MIN TEMP:   5; 6HR MAX TEMP:  34;

HETTINGER      MOSUNNY   36   9  32 W18G26    30.06F
6HR MIN TEMP:   0; 6HR MAX TEMP:  36;

$$

 *****  OTHER AIRPORT OBSERVATIONS IN OUR AREA  *****

CITY           SKY/WX    TMP DP  RH WIND       PRES   REMARKS
WALHALLA         N/A     12   0  57 SW8       30.18F WCI   1
GRAFTON AIRPOR NOT AVBL
VALLEY CITY AR FLURRIES  14   7  73 S17       30.22F WCI  -3
CANDO          FAIR      14   1  57 S9        30.12F WCI   2
CAVALIER APRT  FAIR      12   0  57 S12       30.20F WCI  -2
GWINNER        CLEAR     18   3  53 S21       30.30F WCI   1
SHEYENNE NWR     N/A     17  -1  46 S14       29.95S WCI   3
ROLLA          FAIR       9   0  66 SW17      30.06F WCI -10
 ***** THE ABOVE OBSERVATIONS ARE NON NWS ARE NOT QUALITY
       CONTROLLED AND MAY MIS-REPORT RAIN FOR SNOW...
$$

  *****  WEATHER ACROSS NORTHERN MINNESOTA  *****

CITY           SKY/WX    TMP DP  RH WIND       PRES   REMARKS
FLAG ISLAND    SUNNY      0  -8  71 S20       30.22F WCI -22
WARROAD        SUNNY      7  -6  56 SW12G18   30.25F WCI  -9
ROSEAU         SUNNY      9  -6  52 SW13      30.24F WCI  -7
HALLOCK        NOT AVBL
THF RVR FALLS  SUNNY      9  -4  56 S17       30.26F WCI -10
6HR MIN TEMP: -15; 6HR MAX TEMP:   9;

BAUDETTE       SUNNY      8  -7  50 SW10      30.24F WCI  -6
6HR MIN TEMP: -19; 6HR MAX TEMP:   8;

WASKISH        SUNNY      9  -6  52 SW9       30.30F WCI  -5
CROOKSTON      SUNNY     14   3  62 S22       30.29F WCI  -4
$$
  *****  WEATHER ACROSS CENTRAL AND WEST MINNESOTA  *****

CITY           SKY/WX    TMP DP  RH WIND       PRES   REMARKS
FOSSTON        SUNNY      9  -4  56 S18       30.29F WCI -10
BEMIDJI        SUNNY      9  -6  49 S9        30.29F WCI  -4
PARK RAPIDS    SUNNY      7  -6  55 SW10      30.32F WCI  -8
6HR MIN TEMP: -21; 6HR MAX TEMP:   7;

ELBOW LAKE     FAIR       5  -4  66 S14       30.39F WCI -12
6HR MIN TEMP: -16; 6HR MAX TEMP:   5;

WADENA         SUNNY      5  -8  56 SW8       30.36F WCI  -8
DETROIT LAKES  SUNNY      9  -4  56 S13       30.33F WCI  -7
MOORHEAD       SUNNY     12  -2  52 S17G23    30.34F WCI  -5
FERGUS FALLS   SUNNY      7  -6  56 S13       30.42F WCI  -9
MORRIS MN      SUNNY      9  -2  61 S12       30.40F WCI  -6
STAPLES        SUNNY      7  -8  51 SW6       30.38F WCI  -3
$$
  *****  WEATHER ELSEWHERE ACROSS MINNESOTA  *****

CITY           SKY/WX    TMP DP  RH WIND       PRES   REMARKS
DULUTH         SUNNY      6  -9  50 SW10      30.33F WCI  -9
6HR MIN TEMP: -14; 6HR MAX TEMP:   6;

INTRNTL FALLS  SUNNY      7 -10  46 W8        30.28F WCI  -6
6HR MIN TEMP: -25; 6HR MAX TEMP:   7;

ELY            SUNNY      7 -11  43 W7        30.29F WCI  -5
CLOQUET        SUNNY      7 -11  43 SW6       30.35F WCI  -3
WHEATON        SUNNY      7  -2  66 S13       30.42F WCI  -9
BRAINERD       SUNNY      5  -7  57 SW10      30.39F WCI -10
6HR MIN TEMP: -27; 6HR MAX TEMP:   5;

HIBBING        SUNNY      7 -12  41 VRB6      30.32F WCI  -3
6HR MIN TEMP: -30; 6HR MAX TEMP:   7;

ALEXANDRIA     SUNNY      4  -5  66 S12       30.39F WCI -12
6HR MIN TEMP: -17; 6HR MAX TEMP:   4;

SAINT CLOUD    SUNNY      6  -5  60 VRB6      30.45F WCI  -4
6HR MIN TEMP: -16; 6HR MAX TEMP:   7;

MINNEAPOLIS    SUNNY      8  -6  52 W8        30.50F WCI  -4
6HR MIN TEMP:  -7; 6HR MAX TEMP:   8;

$$

  *****  WEATHER ACROSS SOUTH DAKOTA  *****

CITY           SKY/WX    TMP DP  RH WIND       PRES   REMARKS
SIOUX FALLS    SUNNY     16   3  56 S12       30.42F WCI   3
6HR MIN TEMP: -10; 6HR MAX TEMP:  16;

BROOKINGS      NOT AVBL
WATERTOWN      SUNNY     10   1  67 S14       30.33F WCI  -6
6HR MIN TEMP: -17; 6HR MAX TEMP:  10;

HURON          SUNNY     19   6  57 S13       30.35F WCI   6
6HR MIN TEMP:  -8; 6HR MAX TEMP:  19;

SISSETON       NOT AVBL
ABERDEEN       SUNNY     11   1  64 S20       30.33F WCI  -7
6HR MIN TEMP: -17; 6HR MAX TEMP:  11;

MITCHELL       SUNNY     23   8  52 S15       30.38F WCI  10
PIERRE         SUNNY     18   9  68 SE9       30.24F WCI   7
6HR MIN TEMP:  -8; 6HR MAX TEMP:  18;

MOBRIDGE       SUNNY     22   6  50 SE16      30.16F WCI   8
RAPID CITY     MOSUNNY   36  19  50 E5        30.12S
6HR MIN TEMP:   0; 6HR MAX TEMP:  36;

$$

  *****  SOME WEATHER IN NEARBY STATES *****

CITY           SKY/WX    TMP DP  RH WIND       PRES   REMARKS
GLASGOW MT     SUNNY     32  11  41 W5        30.08F
6HR MIN TEMP:   7; 6HR MAX TEMP:  32;

GREAT FALLS MT MOSUNNY   46  10  23 W20G25    30.11S
6HR MIN TEMP:  26; 6HR MAX TEMP:  46;

CHEYENNE WY    MOSUNNY   36  10  34 W13       30.17S
6HR MIN TEMP:  19; 6HR MAX TEMP:  36;

SCOTTSBLUFF NE PTSUNNY   38  17  42 NW18      30.22R
6HR MIN TEMP:   4; 6HR MAX TEMP:  38;

OMAHA NE       SUNNY     19   1  45 S7        30.54F WCI  10
6HR MIN TEMP:   3; 6HR MAX TEMP:  19;

DES MOINES IA  SUNNY     14  -4  44 W6        30.57S WCI   5
6HR MIN TEMP:   2; 6HR MAX TEMP:  14;

DAVENPORT IA   SUNNY      7  -3  64 NW9       30.57R WCI  -7
6HR MIN TEMP:  -8; 6HR MAX TEMP:   7;

CHICAGO IL     SUNNY     15  -3  44 W13       30.48R WCI   1
6HR MIN TEMP:   3; 6HR MAX TEMP:  15;

EAU CLAIRE WI  SUNNY      3  -9  57 W10       30.49F WCI -12
6HR MIN TEMP: -13; 6HR MAX TEMP:   3;

LA CROSSE WI   SUNNY     11  -8  42 NW7       30.54F WCI   0
6HR MIN TEMP:  -6; 6HR MAX TEMP:  11;

$$

  *****  SOME NATIONAL WEATHER *****

CITY           SKY/WX    TMP DP  RH WIND       PRES   REMARKS
LA GUARDIA NY  HVY SNOW  23  20  88 NW17G24   30.17R VSB 1/4 WCI   9
6HR MIN TEMP:  23; 6HR MAX TEMP:  33; 6HR PCP:  0.28;

RALEIGH NC     LGT RAIN  39  36  87 NE20G26   29.98R FOG
6HR MIN TEMP:  39; 6HR MAX TEMP:  64; 6HR PCP:  0.54;

ATLANTA GA     CLOUDY    43  40  89 NW8       30.06F
6HR MIN TEMP:  42; 6HR MAX TEMP:  63; 6HR PCP:  0.06;

NEW ORLEANS LA CLOUDY    43  36  76 N22G29    30.26S
6HR MIN TEMP:  42; 6HR MAX TEMP:  51; 6HR PCP:  0.01;

OKLAHOMA CITY  SUNNY     35  11  36 NW6       30.58S
6HR MIN TEMP:  10; 6HR MAX TEMP:  35;

ALBUQUERQUE NM SUNNY     39  10  30 CALM      30.42S
6HR MIN TEMP:  23; 6HR MAX TEMP:  39;

SALT LAKE CITY PTSUNNY   39  22  50 SE8       30.45S
6HR MIN TEMP:  27; 6HR MAX TEMP:  39;

LOS ANGELES CA MOSUNNY   67  28  23 CALM      30.27F
6HR MIN TEMP:  50; 6HR MAX TEMP:  67;

BOISE ID       SUNNY     45  15  30 CALM      30.42R



USA.gov is the U.S. government's official web portal to all federal, state and local government web resources and services.